Tracking 20710 objects as of 30-May-2020
HD Live streaming from Space Station
objects crossing your sky now

FENGYUN 1C DEB

Track FENGYUN 1C DEB now!
10-day predictions


NORAD ID: 31066
Int'l Code: 1999-025BFL
Perigee: 472.4 km
Apogee: 729.0 km
Inclination: 99.0 °
Period: 96.6 minutes
Semi major axis: 6971 km
RCS: 0.002 m2 (small)
Launch date: May 10, 1999
Source: People's Republic of China (PRC)
Launch site: Taiyaun Space Center, China (TSC)

Note: This is SATELLITE DEBRIS
aabbcc
Your satellite tracking list
Your tracking list is empty




NASA's NSSDC Master Catalog

Two Line Element Set (TLE):
1 31066U 99025BFL 20150.93579527  .00000795  00000-0  64270-4 0  9990
2 31066  98.9999  49.2464 0184023 165.9716 194.6710 14.91389945713522
Source of the keplerian elements: AFSPC